| time (UTC) | temp F | wind direction | speed knots | gust knots | rain 1hr in | rain 24hr in | rain mn in | humidity % | barometer mb |
| 20260505000046 | 62 | 242 | 1.7 | 6.1 | 0.00 | 0.00 | 0.00 | ||
| 20260504233046 | 65 | 300 | 1.7 | 7.0 | 0.00 | 0.00 | 0.00 | ||
| 20260504223043 | 67 | 238 | 1.7 | 7.0 | 0.00 | 0.00 | 0.00 | ||
| 20260504220055 | 67 | 4 | 1.7 | 10.4 | 0.00 | 0.00 | 0.00 | ||
| 20260504213036 | 68 | 296 | 0.9 | 5.2 | 0.00 | 0.00 | 0.00 | ||
| 20260504203049 | 66 | 347 | 2.6 | 7.0 | 0.00 | 0.00 | 0.00 | ||
| 20260504200100 | 66 | 212 | 0.9 | 6.1 | 0.00 | 0.00 | 0.00 | ||
| 20260504193041 | 65 | 249 | 3.5 | 6.1 | 0.00 | 0.00 | 0.00 | ||
| 20260504190105 | 65 | 327 | 0.9 | 5.2 | 0.00 | 0.00 | 0.00 | ||
| 20260504183047 | 65 | 331 | 0.0 | 5.2 | 0.00 | 0.00 | 0.00 | ||
| 20260504173043 | 62 | 230 | 1.7 | 5.2 | 0.00 | 0.00 | 0.00 | ||
| 20260504170113 | 60 | 249 | 0.9 | 4.3 | 0.00 | 0.00 | 0.00 | ||
| 20260504090106 | 55 | 283 | 0.0 | 0.9 | 0.00 | 0.00 | 0.00 | ||
| 20260504043033 | 62 | 282 | 0.0 | 0.9 | 0.00 | 0.00 | 0.00 | ||
| 20260504033042 | 66 | 291 | 0.0 | 0.9 | 0.00 | 0.00 | 0.00 | ||
| 20260504030111 | 68 | 292 | 0.0 | 0.9 | 0.00 | 0.00 | 0.00 | ||
| 20260504023051 | 70 | 252 | 0.0 | 2.6 | 0.00 | 0.00 | 0.00 | ||
| 20260504013041 | 72 | 279 | 0.9 | 2.6 | 0.00 | 0.00 | 0.00 | ||
| 20260504010051 | 74 | 60 | 0.9 | 3.5 | 0.00 | 0.00 | 0.00 | ||
| 20260504003053 | 76 | 202 | 0.0 | 3.5 | 0.00 | 0.00 | 0.00 |